Regional Weather Roundup
Issued by NWS Upton, NY

Current Version | Previous Version | Text Only | Print | Product List | Glossary On
Versions: 1 2 3 4 5 6 7 8 9 10 11 12 13 14 15 16 17 18 19 20 21 22 23 24 25 26 27
000 ASUS41 KOKX 290804 RWROKX REGIONAL WEATHER ROUNDUP NATIONAL WEATHER SERVICE NEW YORK NY 400 AM EDT SUN MAY 29 2016 NOTE: "FAIR" INDICATES FEW OR NO CLOUDS BELOW 12,000 FEET WITH NO SIGNIFICANT WEATHER AND/OR OBSTRUCTIONS TO VISIBILITY. NYZ071-072-176-178-NJZ106-104-290900- NEW YORK CITY METRO AREA CITY SKY/WX TMP DP RH WIND PRES REMARKS CENTRAL PARK CLEAR 74 55 51 W3 30.15F LAGUARDIA APRT CLEAR 76 59 55 SW6 30.11F KENNEDY INTL PTCLDY 65 55 70 S7 30.14F NEWARK/LIBERTY CLEAR 71 54 54 S7 30.12F BRNX BOT. GARD N/A 75 55 50 S3 30.12F TETERBORO CLEAR 72 56 57 S3 30.11F $$ NYZ177-179-078>081-290900- LONG ISLAND NEW YORK CITY SKY/WX TMP DP RH WIND PRES REMARKS FARMINGDALE CLEAR 65 52 62 SW6 30.13F ISLIP CLEAR 66 56 70 SW6 30.13S SHIRLEY CLEAR 67 57 70 SW5 30.14S RIVERHEAD NOT AVBL WESTHAMPTON CLEAR 64 58 80 SW7 30.15S EAST HAMPTON FAIR 67 57 70 SW6 30.13S MONTAUK POINT N/A 65 57 75 SW5 30.14S $$ NYZ052-065-067-290900- HUDSON VALLEY CITY SKY/WX TMP DP RH WIND PRES REMARKS WHITE PLAINS CLEAR 71 61 70 CALM 30.12F NEWBURGH PTCLDY 70 68 94 CALM 30.12F MONTGOMERY CLEAR 67 66 97 S3 30.11F FOG POUGHKEEPSIE PTCLDY 71 66 84 CALM 30.09F ALBANY CLEAR 71 65 81 CALM 30.09S $$ NJZ001-105-106-008-010-013-015-019>022-104-290900- NEW JERSEY CITY SKY/WX TMP DP RH WIND PRES REMARKS NEWARK/LIBERTY CLEAR 71 54 54 S7 30.12F TETERBORO CLEAR 72 56 57 S3 30.11F CALDWELL CLEAR 71 62 73 CALM 30.12F MORRISTOWN CLEAR 68 61 77 CALM 30.13S SOMERVILLE CLEAR 64 62 93 CALM 30.11F FOG SUSSEX FOG 66 65 96 CALM 30.12F VSB 1/4 ANDOVER N/A 66 65 96 CALM 30.13F TRENTON CLEAR 68 56 65 CALM 30.13F MILLVILLE CLEAR 61 58 90 CALM 30.15S ATLANTIC CITY CLEAR 65 61 87 SW5 30.15S WRIGHTSTOWN NOT AVBL TOMS RIVER CLEAR N/A N/A N/A SW3 30.15S BELMAR CLEAR 67 52 58 SW7 30.15F $$ PAZ047>061-062-071-290900- EASTERN PENNSYLVANIA CITY SKY/WX TMP DP RH WIND PRES REMARKS PHILADELPHIA PTCLDY 68 57 68 S5 30.14S ALLENTOWN CLEAR 70 62 76 CALM 30.13S SCRANTON CLEAR 69 65 86 SE3 30.13S $$ CTZ002-004>006-009-010-012-RIZ004-006-007-MAZ004-011-015-290900- SOUTHERN NEW ENGLAND IN CT CITY SKY/WX TMP DP RH WIND PRES REMARKS BRADLEY INTL CLEAR 67 60 78 S5 30.10S HARTFORD PTCLDY 71 60 68 CALM 30.10F DANBURY PTCLDY 67 64 90 CALM 30.13F WTRBRY/OXFORD N/A 68 61 77 CALM 30.14F BRIDGEPORT CLEAR 69 58 67 SW8 30.11F MERIDEN CLEAR 65 59 81 CALM 30.11F NEW HAVEN CLEAR 65 56 72 S5 30.12S CHESTER FAIR 68 54 60 SW8 30.13S GROTON CLEAR 62 54 74 S3 30.12S WILLIMANTIC PTCLDY 66 62 87 CALM 30.12F IN RI CITY SKY/WX TMP DP RH WIND PRES REMARKS PROVIDENCE CLEAR 69 53 56 SW3 30.11F BLOCK ISLAND CLEAR 61 57 87 SW15 30.14S WESTERLY CLEAR 63 54 72 CALM 30.13F IN MA CITY SKY/WX TMP DP RH WIND PRES REMARKS BOSTON NOT AVBL WORCESTER CLEAR 69 64 84 N6 30.15R WESTFIELD CLEAR 66 63 90 CALM 30.11S PROVINCETOWN PTCLDY 61 56 83 S6 30.12S NANTUCKET CLEAR 59 56 89 SW8 30.14S $$ ANZ330-335-338-340-345-350-353-355-290900- COASTAL MARINE OBSERVATIONS STATION/POSITION TIME SKY/WX TEMP WIND PRES VSBY WAVE AIR SEA DIR/SP/G HT/PER (UTC) (F) (DEG/KT/KT) (MB) (MI) (FT/S) NY HARB ENTRANCE 0650 60 58 210/ 8/ 10 1020.3 3/ 7 20S FIRE ISLAND 0650 62 59 220/ 12/ 14 1020.3 3/ 8 GREAT SOUTH BAY 0730 66 70 260/ 12/ 14 N/A 23 SSW MONTAUK P 0750 59 57 230/ 8/ 10 1020.2 3/ 5 15 E BARNEGAT LI 0722 59 N/A 3/ 8 HUDSON CANYON 0650 61 58 1021.1 2/ 9 KINGS POINT 0700 70 61 1019.9 EXECUTION ROCKS NOT AVBL CENTRAL LI SOUND 0700 66 240/ 6/ 6 N/A 1 EASTERN LI SOUND 0700 58 54 200/ 2/ 4 N/A ROBBINS REEF 0700 72 170/ 5/ 6 1019.8 $$ >>>>>>>>>>>>>>>>>>>>>>>>>>>> KEY <<<<<<<<<<<<<<<<<<<<<<<<<<< > < > SKY/WX - SKY CONDITION/PRESENT WEATHER < > TMP - TEMPERATURE IN FAHRENHEIT < > DP - DEWPOINT IN FAHRENHEIT < > RH - RELATIVE HUMIDITY IN PERCENT < > WIND - DIRECTION AND SPEED IN MPH < > PRES - MEAN SEA LEVEL PRESSURE IN INCHES OF HG < > WCI - WIND CHILL INDEX < > VSB - VISIBILITY IN MILES < > HX - HEAT INDEX < > TC - TEMPERATURE IN CELSIUS < > VRB - VARIABLE WIND DIRECTION < > < >>>>>>>>>>>>>>>>>>>>>>>>>>>> KEY <<<<<<<<<<<<<<<<<<<<<<<<<<<

USA.gov is the U.S. government's official web portal to all federal, state and local government web resources and services.